,

(GMT )
Princeton

Weather History for CWPR - September, 2012

Change the Weather History Date:

Saturday, September 1, 2012

  Actual Average Record
Temperature  
Mean Temperature 55 °F -  
Max Temperature 69 °F - - ()
Min Temperature 41 °F - - ()
Degree Days  
Heating Degree Days 10    
Growing Degree Days 5 (Base 50)    
Moisture  
Dew Point 35 °F    
Average Humidity 48    
Maximum Humidity 81    
Minimum Humidity 21    
Precipitation  
Precipitation 0.00 in - - ()
Sea Level Pressure  
Sea Level Pressure 30.03 in    
Wind  
Wind Speed 3 mph ()    
Max Wind Speed 20 mph    
Max Gust Speed 30 mph    
T = Trace of Precipitation, MM = Missing Value Source: Averaged Metar Reports

Daily Weather History Graph

Daily Weather History Graph

Search for Another Location

Airport or City:

Trip Planner

Search our weather history database for the weather conditions in past years. The results will help you decide how hot, cold, wet, or windy it might be!

Date:

Astronomy

Sep. 01, 2012 Rise Set
Actual Time 6:18 AM PDT 7:43 PM PDT
Civil Twilight 5:45 AM PDT 8:16 PM PDT
Nautical Twilight 5:05 AM PDT 8:57 PM PDT
Astronomical Twilight 4:21 AM PDT 9:40 PM PDT
Moon 7:47 PM PDT (9/1) 7:44 AM PDT (9/1)
Length of Visible Light 14h 31m
Length of Day
13h 25m
Full, 98% of the Moon is Illuminated
Sep 1
Full
Sep 8
Last Quarter
Sep 15
New
Sep 22
First Quarter
Sep 29
Full

Hourly Weather History & Observations

Time (PDT) Temp. Dew Point Humidity Pressure Visibility Wind Dir Wind Speed Gust Speed Precip Events Conditions
12:00 AM 51.3 °F 37.8 °F 60% 29.95 in - Calm Calm - N/A   Unknown
1:00 AM 51.1 °F 37.2 °F 59% 29.96 in - Calm Calm - N/A   Unknown
2:00 AM 50.9 °F 38.3 °F 62% 29.97 in - Calm Calm - N/A   Unknown
3:00 AM 47.1 °F 36.1 °F 66% 29.98 in - Calm Calm - N/A   Unknown
4:00 AM 45.3 °F 36.9 °F 72% 30.00 in - Calm Calm - N/A   Unknown
5:00 AM 46 °F 37 °F 63% 30.01 in - Calm Calm - -  
5:00 AM 45.9 °F 37.4 °F 72% 30.01 in - Calm Calm - N/A   Unknown
6:00 AM 42.8 °F 36.3 °F 78% 30.03 in - Calm Calm - N/A   Unknown
7:00 AM 41.5 °F 36.0 °F 81% 30.05 in - Calm Calm - N/A   Unknown
8:00 AM 46.9 °F 37.6 °F 70% 30.07 in - Calm Calm - N/A   Unknown
9:00 AM 51.4 °F 38.5 °F 61% 30.06 in - Calm Calm - N/A   Unknown
10:00 AM 56.1 °F 37.6 °F 50% 30.06 in - Calm Calm - N/A   Unknown
11:00 AM 62 °F 37 °F 28% 30.04 in - SE 2.3 mph - -  
11:00 AM 61.9 °F 37.4 °F 40% 30.04 in - SE 2.3 mph - N/A   Unknown
12:00 PM 66.9 °F 35.4 °F 31% 30.02 in - WSW 9.2 mph 19.6 mph N/A   Unknown
1:00 PM 66.4 °F 33.6 °F 30% 30.02 in - WSW 15.0 mph 23.0 mph N/A   Unknown
2:00 PM 68.7 °F 34.0 °F 28% 30.02 in - WSW 12.7 mph 23.0 mph N/A   Unknown
3:00 PM 68.0 °F 31.3 °F 26% 30.03 in - SW 19.6 mph 29.9 mph N/A   Unknown
4:00 PM 66.7 °F 34.7 °F 31% 30.03 in - West 9.2 mph 24.2 mph N/A   Unknown
5:00 PM 65 °F 35 °F 21% 30.04 in - WNW 9.2 mph - -  
5:00 PM 65.5 °F 34.9 °F 32% 30.04 in - WNW 9.2 mph - N/A   Unknown
6:00 PM 65.1 °F 34.2 °F 32% 30.06 in - WSW 16.1 mph 26.5 mph N/A   Unknown
7:00 PM 62.4 °F 33.1 °F 33% 30.06 in - SW 9.2 mph - N/A   Unknown
8:00 PM 60.6 °F 32.0 °F 34% 30.07 in - WSW 10.4 mph 18.4 mph N/A   Unknown
9:00 PM 55.0 °F 31.8 °F 41% 30.08 in - Calm Calm - N/A   Unknown
10:00 PM 51.8 °F 33.8 °F 50% 30.09 in - Calm Calm - N/A   Unknown
11:00 PM 50 °F 34 °F 43% 30.08 in - WNW 1.2 mph - -  
11:00 PM 50.0 °F 34.2 °F 55% 30.08 in - WNW 1.2 mph - N/A   Unknown